• In Österreich
  • Länderverzeichnis
  • Für 7 Tage
  • Wassertemperatur
  • Satellitenkarten
  • Wetterkarte
  • News
  • Widgets
  • user-avatar
    Anmelden

    Stündliche Wetter Popowo

    Heute, 20 September, Donnerstag

    Zeit Temperatur Niederschläge Wind Luftdruck Luftfeuchtigkeit
    00:00 +20°C° 0 mm 2 m/S 749 mmHg 68%
    01:00 +20°C° 0 mm 2 m/S 749 mmHg 69%
    02:00 +20°C° 0 mm 2 m/S 749 mmHg 70%
    03:00 +19°C° 0 mm 2 m/S 749 mmHg 71%
    04:00 +19°C° 0 mm 2 m/S 749 mmHg 72%
    05:00 +19°C° 0 mm 2 m/S 749 mmHg 71%
    06:00 +20°C° 0 mm 2 m/S 749 mmHg 71%
    07:00 +20°C° 0 mm 2 m/S 749 mmHg 70%
    08:00 +23°C° 0 mm 2 m/S 750 mmHg 64%
    09:00 +25°C° 0 mm 2 m/S 750 mmHg 58%
    10:00 +27°C° 0 mm 2 m/S 750 mmHg 52%
    11:00 +28°C° 0 mm 2 m/S 750 mmHg 48%
    12:00 +29°C° 0 mm 2 m/S 749 mmHg 45%
    13:00 +30°C° 0 mm 3 m/S 749 mmHg 41%
    14:00 +30°C° 0 mm 3 m/S 749 mmHg 41%
    15:00 +30°C° 0 mm 3 m/S 748 mmHg 41%
    16:00 +30°C° 0 mm 2 m/S 748 mmHg 41%
    17:00 +28°C° 0 mm 2 m/S 748 mmHg 46%
    18:00 +26°C° 0 mm 2 m/S 748 mmHg 51%
    19:00 +24°C° 0 mm 2 m/S 748 mmHg 57%
    20:00 +24°C° 0 mm 2 m/S 748 mmHg 58%
    21:00 +23°C° 0 mm 2 m/S 748 mmHg 59%
    22:00 +21°C° 0 mm 2 m/S 747 mmHg 60%
    23:00 +21°C° 0 mm 2 m/S 747 mmHg 61%

    Morgen, 21 September, Freitag

    Zeit Temperatur Niederschläge Wind Luftdruck Luftfeuchtigkeit
    00:00 +21°C° 0 mm 2 m/S 747 mmHg 62%
    01:00 +20°C° 0 mm 2 m/S 746 mmHg 63%
    02:00 +20°C° 0 mm 2 m/S 746 mmHg 65%
    03:00 +20°C° 0 mm 3 m/S 746 mmHg 66%
    04:00 +19°C° 0 mm 3 m/S 745 mmHg 68%
    05:00 +19°C° 0 mm 3 m/S 745 mmHg 68%
    06:00 +20°C° 0 mm 3 m/S 745 mmHg 68%
    07:00 +20°C° 0 mm 3 m/S 745 mmHg 68%
    08:00 +22°C° 0 mm 4 m/S 744 mmHg 60%
    09:00 +25°C° 0 mm 5 m/S 744 mmHg 52%
    10:00 +28°C° 0 mm 5 m/S 744 mmHg 44%
    11:00 +29°C° 0 mm 6 m/S 743 mmHg 40%
    12:00 +30°C° 0 mm 6 m/S 743 mmHg 37%
    13:00 +30°C° 0 mm 6 m/S 742 mmHg 33%
    14:00 +30°C° 0 mm 6 m/S 742 mmHg 34%
    15:00 +30°C° 0 mm 6 m/S 742 mmHg 35%
    16:00 +30°C° 0 mm 5 m/S 741 mmHg 37%
    17:00 +27°C° 0 mm 6 m/S 742 mmHg 43%
    18:00 +23°C° 0 mm 7 m/S 743 mmHg 50%
    19:00 +21°C° 0 mm 7 m/S 743 mmHg 57%
    20:00 +19°C° 0.1 mm 6 m/S 744 mmHg 56%
    21:00 +17°C° 0.1 mm 5 m/S 745 mmHg 56%
    22:00 +15°C° 0.1 mm 4 m/S 746 mmHg 55%
    23:00 +15°C° 0 mm 4 m/S 746 mmHg 55%

    übermorgen, 22 September, Samstag

    Zeit Temperatur Niederschläge Wind Luftdruck Luftfeuchtigkeit
    00:00 +14°C° 0 mm 4 m/S 747 mmHg 55%
    01:00 +14°C° 0 mm 3 m/S 747 mmHg 55%
    02:00 +14°C° 0 mm 3 m/S 747 mmHg 54%
    03:00 +13°C° 0 mm 3 m/S 748 mmHg 54%
    04:00 +13°C° 0 mm 3 m/S 748 mmHg 54%
    05:00 +13°C° 0 mm 4 m/S 748 mmHg 54%
    06:00 +13°C° 0 mm 4 m/S 748 mmHg 53%
    07:00 +13°C° 0 mm 5 m/S 749 mmHg 53%
    08:00 +14°C° 0 mm 5 m/S 749 mmHg 50%
    09:00 +15°C° 0 mm 5 m/S 749 mmHg 47%
    10:00 +16°C° 0 mm 6 m/S 749 mmHg 44%
    11:00 +17°C° 0 mm 6 m/S 749 mmHg 42%
    12:00 +17°C° 0 mm 6 m/S 749 mmHg 39%
    13:00 +19°C° 0 mm 6 m/S 748 mmHg 37%
    14:00 +19°C° 0 mm 6 m/S 748 mmHg 38%
    15:00 +19°C° 0 mm 6 m/S 748 mmHg 39%
    16:00 +17°C° 0 mm 6 m/S 748 mmHg 39%
    17:00 +16°C° 0 mm 5 m/S 748 mmHg 42%
    18:00 +15°C° 0 mm 4 m/S 749 mmHg 45%
    19:00 +14°C° 0 mm 3 m/S 749 mmHg 47%
    20:00 +13°C° 0 mm 3 m/S 749 mmHg 51%
    21:00 +13°C° 0 mm 3 m/S 749 mmHg 54%
    22:00 +12°C° 0 mm 3 m/S 750 mmHg 58%
    23:00 +11°C° 0 mm 3 m/S 750 mmHg 60%

    23 September, Sonntag

    Zeit Temperatur Niederschläge Wind Luftdruck Luftfeuchtigkeit
    00:00 +11°C° 0 mm 3 m/S 750 mmHg 63%
    01:00 +10°C° 0 mm 3 m/S 750 mmHg 65%
    02:00 +10°C° 0 mm 3 m/S 750 mmHg 66%
    03:00 +10°C° 0 mm 3 m/S 749 mmHg 67%
    04:00 +9°C° 0 mm 3 m/S 749 mmHg 69%
    05:00 +10°C° 0 mm 3 m/S 749 mmHg 67%
    06:00 +10°C° 0 mm 3 m/S 749 mmHg 66%
    07:00 +10°C° 0 mm 3 m/S 749 mmHg 65%
    08:00 +12°C° 0 mm 3 m/S 749 mmHg 60%
    09:00 +13°C° 0 mm 3 m/S 749 mmHg 54%
    10:00 +15°C° 0 mm 4 m/S 749 mmHg 49%
    11:00 +15°C° 0 mm 4 m/S 748 mmHg 47%
    12:00 +17°C° 0 mm 4 m/S 747 mmHg 45%
    13:00 +18°C° 0 mm 4 m/S 746 mmHg 44%
    14:00 +17°C° 0.2 mm 4 m/S 745 mmHg 50%
    15:00 +15°C° 0.2 mm 4 m/S 744 mmHg 57%
    16:00 +15°C° 0.2 mm 4 m/S 742 mmHg 63%
    17:00 +14°C° 2.4 mm 4 m/S 741 mmHg 71%
    18:00 +14°C° 2.4 mm 4 m/S 740 mmHg 79%
    19:00 +14°C° 2.4 mm 5 m/S 738 mmHg 86%
    20:00 +14°C° 1.9 mm 5 m/S 737 mmHg 85%
    21:00 +15°C° 1.9 mm 5 m/S 735 mmHg 84%
    22:00 +16°C° 1.9 mm 5 m/S 734 mmHg 83%
    23:00 +16°C° 1.2 mm 6 m/S 732 mmHg 83%

    24 September, Montag

    Zeit Temperatur Niederschläge Wind Luftdruck Luftfeuchtigkeit
    00:00 +17°C° 1.2 mm 7 m/S 731 mmHg 82%
    01:00 +17°C° 1.2 mm 7 m/S 730 mmHg 82%
    02:00 +16°C° 1 mm 8 m/S 729 mmHg 78%
    03:00 +15°C° 1 mm 8 m/S 729 mmHg 74%
    04:00 +12°C° 1 mm 9 m/S 728 mmHg 70%
    05:00 +12°C° 0.1 mm 8 m/S 728 mmHg 73%
    06:00 +12°C° 0.1 mm 8 m/S 728 mmHg 77%
    07:00 +11°C° 0.1 mm 7 m/S 728 mmHg 80%
    08:00 +11°C° 1.2 mm 9 m/S 730 mmHg 80%
    09:00 +9°C° 1.2 mm 11 m/S 732 mmHg 81%
    10:00 +8°C° 1.2 mm 13 m/S 733 mmHg 81%
    11:00 +8°C° 0.5 mm 13 m/S 735 mmHg 78%
    12:00 +9°C° 0.5 mm 12 m/S 737 mmHg 75%
    13:00 +9°C° 0.5 mm 12 m/S 739 mmHg 72%
    14:00 +9°C° 0.1 mm 11 m/S 740 mmHg 67%
    15:00 +11°C° 0.1 mm 11 m/S 741 mmHg 63%
    16:00 +12°C° 0.1 mm 11 m/S 743 mmHg 59%
    17:00 +11°C° 0.2 mm 10 m/S 744 mmHg 63%
    18:00 +10°C° 0.2 mm 9 m/S 745 mmHg 68%
    19:00 +9°C° 0.2 mm 7 m/S 746 mmHg 73%
    20:00 +8°C° 0 mm 7 m/S 747 mmHg 74%
    21:00 +8°C° 0 mm 7 m/S 748 mmHg 75%
    22:00 +8°C° 0 mm 7 m/S 748 mmHg 76%
    23:00 +8°C° 0 mm 7 m/S 749 mmHg 75%

    25 September, Dienstag

    Zeit Temperatur Niederschläge Wind Luftdruck Luftfeuchtigkeit
    00:00 +6°C° 0 mm 7 m/S 750 mmHg 74%
    01:00 +6°C° 0 mm 7 m/S 750 mmHg 74%
    02:00 +7°C° 0 mm 6 m/S 750 mmHg 74%
    03:00 +5°C° 0 mm 6 m/S 751 mmHg 74%
    04:00 +5°C° 0 mm 6 m/S 751 mmHg 74%
    05:00 +5°C° 0.2 mm 6 m/S 751 mmHg 76%
    06:00 +6°C° 0.2 mm 5 m/S 751 mmHg 79%
    07:00 +6°C° 0.2 mm 5 m/S 752 mmHg 81%
    08:00 +7°C° 0.2 mm 5 m/S 752 mmHg 76%
    09:00 +8°C° 0.2 mm 6 m/S 753 mmHg 70%
    10:00 +9°C° 0.2 mm 7 m/S 754 mmHg 65%
    11:00 +10°C° 0.3 mm 7 m/S 754 mmHg 61%
    12:00 +11°C° 0.3 mm 7 m/S 754 mmHg 58%
    13:00 +11°C° 0.3 mm 7 m/S 754 mmHg 54%
    14:00 +11°C° 0.1 mm 6 m/S 755 mmHg 53%
    15:00 +11°C° 0.1 mm 6 m/S 755 mmHg 53%
    16:00 +11°C° 0.1 mm 6 m/S 755 mmHg 52%
    17:00 +11°C° 0 mm 4 m/S 755 mmHg 58%
    18:00 +10°C° 0 mm 3 m/S 756 mmHg 63%
    19:00 +9°C° 0 mm 2 m/S 756 mmHg 69%
    20:00 +9°C° 0 mm 2 m/S 756 mmHg 72%
    21:00 +8°C° 0 mm 2 m/S 756 mmHg 74%
    22:00 +8°C° 0 mm 3 m/S 756 mmHg 77%
    23:00 +8°C° 0 mm 3 m/S 756 mmHg 81%
    Mehr zeigen